CZ-6A DEB

Satellite information

Favourite Embed

Satellite Type and Status

DEBRISIN ORBIT

Key statistics

Satellite CZ-6A DEB at a glance.

Uptime

1076

Days in orbit

Revolutions

≈ 14.4

Per day

Orbit

SSO

Sun Synchronous Orbit

Inclination

98.6

Latest

Satellite identification and parameters

Extended collection of information and parameters for CZ-6A DEB.

Object identification

Identified? True

Debris? True

Object name: CZ-6A DEB

International designator: 2022-151BQ

Object number (NORAD): 54321

Object ID (CCSDS): 54321

Country: PEOPLES REPUBLIC OF CHINA (PRC)

Current information (Y/N): Y

RCS size: SMALL

Orbital parameters

Period: 99.932 minutes

Inclination: 98.626 deg

SMA: 7133.401 km

Apoapsis: 841.809 km

Periapsis: 668.723 km

RAAN: 326.2078 deg

Eccentricy: 0.0121321

Argument of periapsis: 346.3643 deg

Mean anomaly: 13.4277 deg

Mean motion: 14.40979487 rev/day

Mean motion (dot): 0.00001427 rev/day2

B* drag term: 0.00042109 1/REarth

Two-line elements (TLE)

Creation date: Oct. 22, 2025, 12:06 a.m.

Reference frame: TEME

Reference center: EARTH

Epoch: Oct. 21, 2025, 7:40 p.m. UTC

TLE line 0: 0 CZ-6A DEB

TLE line 1: 1 54321U 22151BQ 25294.81958111 .00001427 00000-0 42109-3 0 9995

TLE line 2: 2 54321 98.6260 326.2078 0121321 346.3643 13.4277 14.40979487153966

Live tracking on map

Real-time ground track for satellite CZ-6A DEB.

In-orbit conjunctions

A list of the most updated potential collisions computed for object CZ-6A DEB.

Target Orbit TCA Probability of collision Miss distance Type
COSMOS 1763 LEO 2025-02-21 18:06:13 0.0001044561 843.0 (m) PAYLOAD
FENGYUN 1C DEB SSO 2025-01-04 06:18:20 0.0009361297 28.0 (m) DEBRIS
FENGYUN 1C DEB SSO 2024-11-13 22:34:25 0.0008261867 140.0 (m) DEBRIS

Associated space launch

Chinese satellite reported for atmospheric/ocean/environmental/spatial parameter research purposes, details TBD.

CZ-6A DEB was lifted into orbit during the mission ‘Long March 6A | Yunhai 3’, on board a Long March 6A space rocket.

The launch took place on Nov. 11, 2022, 10:52 p.m. from Launch Complex 9A.

For more information about the launch, click the button.

Launch to space Long March 6A | Yunhai 3
Long March 6A | Yunhai 3

Agency: N/A

Status: Launch Successful

Launch date: Nov. 11, 2022, 10:52 p.m. UTC

Rocket: Long March 6A

Launch pad: Launch Complex 9A

Location: Taiyuan Satellite Launch Center, People's Republic of China

...

Latest news about this satellite

There are no fresh news available about this satellite. Check back as we update our databases every day.


Newsletter sign-up

Weekly statistics, charts and insights to help you stay on top of the space industry.